This is the latest recevied weather packets stored in our database for station/object KB0Y. If no packets are shown the sender has not sent any weather packets the latest 10 day(s).
| Time | Temp. | Humidity | Pressure | Rain* | Wind** | Luminosity | Snow |
|---|---|---|---|---|---|---|---|
| 1777375851 | 15° C | 99% | 1024.8 hPa | 0 mm | - | 21 W/m² | - |
| 1777375546 | 15° C | 99% | 1024.8 hPa | 0 mm | - | 12 W/m² | - |
| 1777375242 | 15° C | 99% | 1024.8 hPa | 0 mm | - | 6 W/m² | - |
| 1777374938 | 14.44° C | 99% | 1024.8 hPa | 0 mm | - | 3 W/m² | - |
| 1777374634 | 14.44° C | 99% | 1024.8 hPa | 0 mm | - | 1 W/m² | - |
| 1777374330 | 14.44° C | 99% | 1024.5 hPa | 0 mm | - | 0 W/m² | - |
| 1777374026 | 14.44° C | 99% | 1024.5 hPa | 0 mm | - | 0 W/m² | - |
| 1777373723 | 14.44° C | 99% | 1024.5 hPa | 0 mm | - | 0 W/m² | - |
| 1777373421 | 14.44° C | 99% | 1024.1 hPa | 0 mm | - | 0 W/m² | - |
| 1777373116 | 14.44° C | 99% | 1024.1 hPa | 0 mm | - | 0 W/m² | - |
| 1777372811 | 14.44° C | 99% | 1023.8 hPa | 0 mm | - | 0 W/m² | - |
| 1777372506 | 14.44° C | 99% | 1024.1 hPa | 0 mm | - | 0 W/m² | - |
| 1777372204 | 14.44° C | 99% | 1023.8 hPa | 0 mm | - | 0 W/m² | - |
| 1777371899 | 13.89° C | 99% | 1023.8 hPa | 0 mm | - | 0 W/m² | - |
| 1777371596 | 13.89° C | 99% | 1023.8 hPa | 0 mm | - | 0 W/m² | - |
| 1777371292 | 13.89° C | 99% | 1023.4 hPa | 0 mm | - | 0 W/m² | - |
| 1777370989 | 13.89° C | 99% | 1023.8 hPa | 0 mm | - | 0 W/m² | - |
| 1777370684 | 13.33° C | 99% | 1023.4 hPa | 0 mm | - | 0 W/m² | - |
| 1777370381 | 13.33° C | 99% | 1023.4 hPa | 0 mm | - | 0 W/m² | - |
| 1777370076 | 13.33° C | 99% | 1023.8 hPa | 0 mm | - | 0 W/m² | - |
| 1777369774 | 13.33° C | 99% | 1023.4 hPa | 0 mm | - | 0 W/m² | - |
| 1777369473 | 13.33° C | 99% | 1023.4 hPa | 0 mm | - | 0 W/m² | - |
| 1777369169 | 13.33° C | 99% | 1023.4 hPa | 0 mm | - | 0 W/m² | - |
| 1777368868 | 13.33° C | 99% | 1023.4 hPa | 0 mm | - | 0 W/m² | - |
| 1777368567 | 13.33° C | 99% | 1023.4 hPa | 0 mm | - | 0 W/m² | - |
* Rain latest hour (hover to see other rain measurements)
** Current wind speed in m/s (hover to see current wind gust speed)